[[{"header":{"parameterUnit":"m.s-1","parameterCategory":1,"la1":30.2991,"la2":30.254,"lo1":-89.0895,"lo2":-89.0444,"dy":0.0017,"dx":0.0017,"nx":28,"ny":28,"refTime":"2024-02-28T03:00:00:Z","depth":0,"parameterNumber":2,"parameterNumberName":"U-component_of_WINDS"},"data":[0,0,0,0,0,0,0,0,0,0,0,0,0,0,0,0,0,0,0,0,0,0,0,0,0,0,0,0,0,0,0,0,0,0,0,0,0,0,0,0,0,0,0,0,0,0,0,0,0,0,0,0,0,0,0,0,0,0,-3.8097,-3.8097,0,-3.8108,-3.8108,-3.8108,-3.8006,-3.8003,-3.8,-3.7997,-3.801,-3.8013,-3.8016,0,0,0,0,0,0,0,0,0,0,0,0,0,-3.7987,-3.799,-3.8097,-3.8097,-3.8097,-3.8108,-3.8108,-3.8108,-3.8006,-3.8003,-3.7999,-3.7996,-3.8009,-3.8013,-3.8016,0,0,0,0,0,0,0,0,0,0,0,0,0,-3.802,-3.7991,-3.8097,-3.8047,-3.8043,-3.8108,-3.8108,-3.8108,-3.8007,-3.8003,-3.7998,-3.7994,-3.8008,-3.8012,-3.8017,-3.813,0,0,-3.8031,-3.8033,0,0,0,0,0,0,0,0,-3.8019,-3.8024,-3.8054,-3.8051,-3.8046,-3.8051,-3.8074,-3.8116,-3.8008,-3.8021,-3.7997,-3.7992,-3.8027,-3.803,-3.8041,-3.8131,-3.8131,-3.8031,-3.8034,-3.8036,-3.8037,0,0,0,0,0,0,0,-3.8016,-3.8023,-3.8101,-3.8055,-3.805,-3.8025,-3.8025,-3.8081,-3.8048,-3.8019,-3.8012,-3.8014,-3.8024,-3.8037,-3.8041,-3.8131,-3.8031,-3.8035,-3.8038,-3.8039,-3.8313,-3.8318,0,0,0,0,0,0,-3.8021,-3.8022,-3.8101,-3.8101,-3.8021,-3.803,-3.803,-3.8054,-3.8047,-3.8042,-3.8018,-3.801,-3.8032,-3.8036,-3.8041,-3.8173,-3.8036,-3.804,-3.8042,-3.8309,-3.8314,-3.8319,0,0,0,0,0,0,-3.8019,-3.8029,-3.81,-3.806,-3.8067,-3.8037,-3.8064,-3.8056,-3.8069,-3.8046,-3.804,-3.8038,-3.8029,-3.8035,-3.8108,-3.8172,-3.8042,-3.8046,-3.8304,-3.8311,-3.8317,-3.8439,0,0,0,0,0,0,-3.8016,-3.8029,-3.8071,-3.8061,-3.8069,-3.8168,-3.8068,-3.8059,-3.8077,-3.8066,-3.8063,-3.8058,-3.8026,-3.8102,-3.8113,-3.8176,-3.8049,-3.8298,-3.8307,-3.8315,-3.8429,-3.8449,-3.8466,0,0,0,0,0,-3.8012,-3.8106,-3.8074,-3.8084,-3.8122,-3.8172,-3.8176,-3.8137,-3.8083,-3.8125,-3.811,-3.8058,-3.8163,-3.8111,-3.8122,-3.8187,-3.8294,-3.8304,-3.8314,-3.8421,-3.8445,-3.8466,0,0,0,0,0,0,-3.8124,-3.8103,-3.8068,-3.8161,-3.8169,-3.8154,-3.8207,-3.8164,-3.8188,-3.8177,-3.8127,-3.8127,-3.8209,-3.8205,-3.8147,-3.8296,-3.8219,-3.8232,-3.8296,-3.8319,-3.8337,-3.8337,-3.8053,0,0,0,0,0,-3.816,-3.8201,-3.8181,-3.8264,-3.827,-3.8238,-3.8258,-3.8227,-3.8233,-3.8236,-3.8226,-3.8235,-3.827,-3.8294,-3.8325,-3.8427,-3.8425,-3.8478,-3.8496,-3.8512,-3.8524,-3.8578,-3.8601,-3.8353,-3.8353,-3.8353,0,0,-3.8234,-3.8227,-3.8257,-3.8287,-3.8289,-3.8334,-3.8242,-3.8293,-3.8325,-3.8244,-3.8313,-3.8306,-3.8312,-3.8401,-3.844,-3.8401,-3.8592,-3.8525,-3.8537,-3.8541,-3.8591,-3.8615,-3.8636,-3.836,-3.8359,-3.8358,0,0,-3.8391,-3.839,-3.846,-3.8464,-3.8468,-3.8446,-3.8463,-3.8455,-3.8447,-3.8515,-3.8455,-3.8493,-3.8554,-3.8561,-3.8572,-3.8731,-3.8684,-3.8742,-3.884,-3.8894,-3.8913,-3.893,-3.8988,-3.9009,-3.8754,-3.8755,-3.8755,0,-3.8482,-3.8547,-3.8501,-3.8556,-3.8571,-3.8498,-3.8569,-3.8575,-3.859,-3.8602,-3.8557,-3.8632,-3.8631,-3.8721,-3.8759,-3.8771,-3.8789,-3.8743,-3.8914,-3.893,-3.8946,-3.9,-3.9022,-3.8762,-3.8761,-3.876,-3.876,0,-3.8659,-3.8705,-3.876,-3.8776,-3.8797,-3.886,-3.8823,-3.885,-3.8817,-3.8799,-3.887,-3.8866,-3.8894,-3.8913,-3.8881,-3.8998,-3.8973,-3.8922,-3.8844,-3.8977,-3.9027,-3.9048,-3.8772,-3.877,-3.8767,-3.8766,0,0,-3.8889,-3.8878,-3.8899,-3.8905,-3.8904,-3.8939,-3.8997,-3.9025,-3.9049,-3.9061,-3.911,-3.9162,-3.9115,-3.9128,-3.9096,-3.9142,-3.9269,-3.9085,-3.9084,-3.912,-3.9398,-3.9438,-3.9463,-3.9237,-3.9241,-3.9244,-3.9398,0,-3.9043,-3.9143,-3.9104,-3.9207,-3.9249,-3.9179,-3.9231,-3.9236,-3.9221,-3.9254,-3.9237,-3.9276,-3.9209,-3.9217,-3.926,-3.9245,-3.9324,-3.9233,-3.9283,-3.9285,-3.9285,-3.9489,-3.9531,-3.9677,-3.9417,-3.942,-3.9423,0,-3.9237,-3.9257,-3.9364,-3.9355,-3.9371,-3.9418,-3.944,-3.9472,-3.9476,-3.9462,-3.9476,-3.9434,-3.9491,-3.9411,-3.949,-3.9428,-3.9446,-3.9442,-3.9446,-3.9451,-3.9363,-3.95,-3.9722,-3.9745,-3.9453,-3.9451,-3.9448,0,-3.9396,-3.9449,-3.952,-3.9527,-3.9518,-3.9553,-3.9551,-3.955,-3.9569,-3.9588,-3.96,-3.9625,-3.9639,-3.966,-3.9625,-3.9571,-3.9709,-3.9627,-3.97,-3.9701,-3.9733,-3.9732,-3.9963,-3.9743,-3.9742,-3.9742,-3.9742,0,-3.9573,-3.9642,-3.9591,-3.9635,-3.971,-3.9663,-3.9738,-3.9728,-3.9729,-3.977,-3.9711,-3.9751,-3.9702,-3.9737,-3.971,-3.9779,-3.9786,-3.9776,-3.9769,-3.9783,-3.9784,-3.9795,-3.9784,-3.9748,-3.9746,-3.9745,-3.9744,0,-3.9763,-3.9732,-3.9805,-3.979,-3.9788,-3.9844,-3.9831,-3.9871,-3.9851,-3.9904,-3.9914,-3.9883,-3.9921,-3.9888,-3.9925,-3.9907,-3.9999,-3.9977,-3.9998,-3.9993,-4.0068,-4.0062,-4.0315,-4.0346,-4.0105,-4.0107,-4.0109,0,-3.9879,-3.9931,-3.9921,-3.9944,-3.9945,-3.9983,-4.0002,-3.9957,-3.9979,-3.9987,-4.0026,-4.0059,-4.0083,-4.0148,-4.0129,-4.0157,-4.0135,-4.0221,-4.0139,-4.0151,-4.0137,-4.0135,-4.014,-4.0239,-4.0242,-4.0244,-4.0246,0,-4.0089,-4.007,-4.0099,-4.0123,-4.0146,-4.0163,-4.0175,-4.0197,-4.0151,-4.0178,-4.0216,-4.0235,-4.0272,-4.0306,-4.0328,-4.0325,-4.0279,-4.0272,-4.029,-4.0306,-4.0317,-4.0313,-4.0046,-4.0267,-4.0265,-4.0263,-4.0262,-4.0261,-4.0246,-4.0289,-4.0288,-4.0322,-4.0326,-4.0338,-4.0375,-4.036,-4.039,-4.0417,-4.0388,-4.0435,-4.0436,-4.046,-4.0464,-4.05,-4.0464,-4.049,-4.0497,-4.0505,-4.0516,-4.031,-4.0503,-4.0503,-4.0502,-4.0501,-4.0501,0,-4.0454,-4.045,-4.0481,-4.0499,-4.0526,-4.0478,-4.0488,-4.0514,-4.0556,-4.0561,-4.0586,-4.0629,-4.0661,-4.0645,-4.0672,-4.0704,-4.0684,-4.0713,-4.0711,-4.0712,-4.0546,-4.0528,-4.073,-4.073,-4.0729,-4.0729,-4.0729,-4.0729,-4.0565,-4.0634,-4.0616,-4.0686,-4.0681,-4.0726,-4.0736,-4.0747,-4.0751,-4.0802,-4.0828,-4.0816,-4.0813,-4.0839,-4.0867,-4.0861,-4.0875,-4.0912,-4.0899,-4.0746,-4.0723,-4.0702,-4.0684,-4.0915,-4.0916,-4.1061,-4.1063,-4.1064]},{"header":{"parameterUnit":"m.s-1","parameterCategory":1,"la1":30.2991,"la2":30.254,"lo1":-89.0895,"lo2":-89.0444,"dy":0.0017,"dx":0.0017,"nx":28,"ny":28,"refTime":"2024-02-28T03:00:00:Z","depth":0,"parameterNumber":3,"parameterNumberName":"V-component_of_WINDS"},"data":[0,0,0,0,0,0,0,0,0,0,0,0,0,0,0,0,0,0,0,0,0,0,0,0,0,0,0,0,0,0,0,0,0,0,0,0,0,0,0,0,0,0,0,0,0,0,0,0,0,0,0,0,0,0,0,0,0,0,-4.982,-4.982,0,-4.9843,-4.9844,-4.9844,-4.9813,-4.9812,-4.9811,-4.981,-4.9831,-4.9833,-4.9835,0,0,0,0,0,0,0,0,0,0,0,0,0,-4.9744,-4.9745,-4.982,-4.982,-4.982,-4.9843,-4.9844,-4.9844,-4.9813,-4.9812,-4.981,-4.9809,-4.9831,-4.9833,-4.9835,0,0,0,0,0,0,0,0,0,0,0,0,0,-4.9773,-4.9746,-4.982,-4.9808,-4.9807,-4.9843,-4.9844,-4.9844,-4.9813,-4.9812,-4.981,-4.9808,-4.983,-4.9833,-4.9835,-4.9884,0,0,-4.9842,-4.9844,0,0,0,0,0,0,0,0,-4.9771,-4.9776,-4.9809,-4.9809,-4.9808,-4.9824,-4.9825,-4.9857,-4.9814,-4.9811,-4.981,-4.9808,-4.983,-4.9832,-4.984,-4.9885,-4.9886,-4.9843,-4.9844,-4.9845,-4.9846,0,0,0,0,0,0,0,-4.9769,-4.9775,-4.9829,-4.981,-4.9809,-4.98,-4.9802,-4.9831,-4.9829,-4.9811,-4.9809,-4.9812,-4.9829,-4.9838,-4.9841,-4.9886,-4.9843,-4.9845,-4.9846,-4.9847,-4.9969,-4.9971,0,0,0,0,0,0,-4.9769,-4.9773,-4.9828,-4.983,-4.9785,-4.9803,-4.9805,-4.982,-4.9829,-4.9829,-4.9814,-4.9811,-4.9835,-4.9838,-4.9841,-4.9897,-4.9845,-4.9847,-4.9849,-4.9968,-4.997,-4.9972,0,0,0,0,0,0,-4.9768,-4.9774,-4.9827,-4.9801,-4.9807,-4.9806,-4.9823,-4.9821,-4.983,-4.9831,-4.983,-4.9823,-4.9834,-4.9838,-4.9873,-4.9898,-4.9849,-4.9851,-4.9966,-4.9968,-4.9971,-5.0011,0,0,0,0,0,0,-4.9766,-4.9774,-4.9793,-4.9802,-4.9808,-4.986,-4.9824,-4.9823,-4.9835,-4.9831,-4.984,-4.984,-4.9833,-4.987,-4.9876,-4.99,-4.9853,-4.9963,-4.9967,-4.997,-5.0008,-5.0015,-5.0021,0,0,0,0,0,-4.9763,-4.9804,-4.9795,-4.9801,-4.9833,-4.9861,-4.9865,-4.9857,-4.9837,-4.9856,-4.9856,-4.9839,-4.9895,-4.9874,-4.988,-4.9906,-4.9962,-4.9966,-4.997,-5.0005,-5.0013,-5.0021,0,0,0,0,0,0,-4.9798,-4.9805,-4.9795,-4.9839,-4.985,-4.9856,-4.9879,-4.9867,-4.9883,-4.9879,-4.9867,-4.9869,-4.9907,-4.991,-4.9886,-4.9952,-4.9925,-4.993,-4.9949,-4.9957,-4.9964,-4.9962,-4.9855,0,0,0,0,0,-4.9811,-4.9835,-4.9839,-4.9878,-4.9884,-4.9881,-4.9893,-4.9886,-4.9896,-4.99,-4.9903,-4.9913,-4.9932,-4.9945,-4.9963,-5.0008,-5.0009,-5.0029,-5.0036,-5.0041,-5.0046,-5.0068,-5.0077,-4.9985,-4.9985,-4.9985,0,0,-4.9838,-4.9844,-4.986,-4.9885,-4.9892,-4.9916,-4.9885,-4.9911,-4.9928,-4.9904,-4.9937,-4.994,-4.995,-4.999,-5.0007,-4.9993,-5.0071,-5.0046,-5.0051,-5.0052,-5.0073,-5.0082,-5.009,-4.9988,-4.9987,-4.9987,0,0,-4.9899,-4.9907,-4.9939,-4.9947,-4.9959,-4.9957,-4.9965,-4.9973,-4.9973,-5.0007,-4.9989,-5.0008,-5.0042,-5.0049,-5.0058,-5.012,-5.0105,-5.0127,-5.0161,-5.0183,-5.0191,-5.0197,-5.0218,-5.0225,-5.0131,-5.0131,-5.0131,0,-4.993,-4.9966,-4.9957,-4.9985,-4.9996,-4.9975,-5.0007,-5.0015,-5.0032,-5.0039,-5.0024,-5.0065,-5.0071,-5.0111,-5.0127,-5.0135,-5.0142,-5.0125,-5.019,-5.0197,-5.0202,-5.0222,-5.023,-5.0134,-5.0133,-5.0133,-5.0133,0,-5.0003,-5.0028,-5.0053,-5.007,-5.0083,-5.0113,-5.0108,-5.0122,-5.0114,-5.0113,-5.0146,-5.0152,-5.017,-5.0179,-5.0171,-5.0219,-5.0209,-5.0193,-5.0164,-5.0214,-5.0232,-5.0239,-5.0137,-5.0136,-5.0136,-5.0135,0,0,-5.0087,-5.0098,-5.0107,-5.0114,-5.0125,-5.0144,-5.0172,-5.019,-5.0202,-5.0214,-5.0236,-5.0265,-5.0249,-5.0258,-5.0251,-5.027,-5.0318,-5.0251,-5.0251,-5.0262,-5.0368,-5.038,-5.0389,-5.0308,-5.0309,-5.0311,-5.0367,0,-5.0146,-5.0195,-5.0188,-5.0235,-5.0256,-5.0237,-5.0261,-5.027,-5.027,-5.0287,-5.0286,-5.0306,-5.0285,-5.029,-5.0309,-5.0308,-5.0339,-5.0304,-5.0327,-5.0328,-5.0324,-5.0399,-5.0411,-5.0464,-5.0374,-5.0375,-5.0376,0,-5.0222,-5.0237,-5.0286,-5.0293,-5.0301,-5.0324,-5.0339,-5.0356,-5.0365,-5.0363,-5.0374,-5.0362,-5.0389,-5.0361,-5.0396,-5.0373,-5.0382,-5.0383,-5.0385,-5.0385,-5.0354,-5.04,-5.0481,-5.0488,-5.0388,-5.0387,-5.0386,0,-5.0276,-5.0309,-5.0342,-5.0348,-5.0357,-5.0373,-5.0377,-5.0384,-5.0395,-5.0408,-5.0415,-5.0431,-5.044,-5.0452,-5.0445,-5.0425,-5.0481,-5.0453,-5.0479,-5.0479,-5.049,-5.0489,-5.0572,-5.0499,-5.0499,-5.0498,-5.0498,0,-5.0343,-5.0373,-5.0366,-5.0386,-5.0419,-5.041,-5.0442,-5.0444,-5.0451,-5.047,-5.0454,-5.0473,-5.0463,-5.048,-5.0474,-5.0504,-5.0508,-5.0506,-5.0504,-5.0507,-5.0507,-5.0511,-5.0507,-5.05,-5.05,-5.05,-5.0499,0,-5.0408,-5.0405,-5.0439,-5.0445,-5.0446,-5.047,-5.0474,-5.0492,-5.0491,-5.0515,-5.052,-5.0517,-5.0537,-5.0531,-5.0552,-5.0548,-5.0585,-5.0579,-5.0582,-5.058,-5.0606,-5.0603,-5.0693,-5.0704,-5.0625,-5.0626,-5.0626,0,-5.045,-5.0473,-5.048,-5.0492,-5.0498,-5.0518,-5.0529,-5.052,-5.0532,-5.0543,-5.056,-5.0578,-5.0592,-5.0623,-5.0622,-5.0638,-5.0631,-5.0662,-5.0633,-5.0635,-5.063,-5.0628,-5.0629,-5.0667,-5.0668,-5.0669,-5.0669,0,-5.0524,-5.0521,-5.0538,-5.0554,-5.0568,-5.058,-5.059,-5.0601,-5.0593,-5.0607,-5.0627,-5.0638,-5.0659,-5.0676,-5.069,-5.0693,-5.0679,-5.0679,-5.0685,-5.0687,-5.0688,-5.0686,-5.0596,-5.0676,-5.0675,-5.0675,-5.0675,-5.0674,-5.0578,-5.0597,-5.0605,-5.0624,-5.0631,-5.0641,-5.0658,-5.0658,-5.0674,-5.0691,-5.0685,-5.0707,-5.0714,-5.0732,-5.0737,-5.0753,-5.0741,-5.0751,-5.0753,-5.0756,-5.0758,-5.0686,-5.0756,-5.0756,-5.0755,-5.0755,-5.0755,0,-5.065,-5.0654,-5.0672,-5.0687,-5.0701,-5.0688,-5.0699,-5.0711,-5.0731,-5.0739,-5.0753,-5.0775,-5.0792,-5.0792,-5.0807,-5.082,-5.0814,-5.0825,-5.0823,-5.0823,-5.0769,-5.0761,-5.0829,-5.0829,-5.0829,-5.0829,-5.0829,-5.0829,-5.0689,-5.072,-5.0718,-5.0751,-5.0754,-5.0776,-5.0783,-5.0792,-5.0798,-5.0823,-5.0837,-5.0837,-5.0842,-5.0857,-5.0872,-5.0871,-5.0877,-5.0889,-5.0886,-5.0835,-5.0827,-5.082,-5.0813,-5.0891,-5.0891,-5.0939,-5.094,-5.094]}]]